SCP
0 0 0 0 0 0 0 0 0 -0 -0 -0 -0 -0 -0 0 0 0 -0 -0 0 0 0 0 0 0 -0 -0 -0 -0 0 0 0 -0 -0 -0 -0 0 0 0 0 0 0
0 0 0 0 0 0 0 0 0 0 -0 0 -0 -0 -0 -0 0 -0 -0 -0 -0 -0 -0 0 0 0 0 -0 -0 0 0 0 0 0 -0 -0 0 0 0 0 0 0 0
0 0 0 0 0 0 0 0 0 0 -0 -0 0 0 0 -0 -0 0 -0 -0 -0 -0 -0 -0 -0 -0 0 -0 0 0 0 0 0 0 0 0 0 0 0 0 0 0 0
0 0 0 0 0 0 0 0 0 0 -0 -0 -0 -0 0 0 -0 0 0 -0 -0 -0 -0 -0 -0 -0 -0 0 0 0 0 -0 0 0 0 0 0 0 0 0 0 0 0
0 0 0 0 0 0 0 0 0 0 -0 -0 -0 -0 -0 -0 -0 -0 0 0 0 -0 -0 -0 -0 -0 -0 -0 0 0 -0 -0 0 0 0 0 0 0 0 0 0 0 0
0 0 0 1 1 0 0 0 0 0 0 0 0 -0 -0 0 -0 -0 -0 -0 -0 -0 -0 -0 -0 -0 -0 -0 -0 -0 -0 0 0 0 0 0 0 1 1 0 0 0 0
0 0 0 1 1 1 0 0 0 0 0 0 0 0 0 0 0 -0 -0 -0 -0 -0 -0 -0 -0 -0 -0 -0 -0 -0 -0 -0 -0 0 0 1 1 1 1 1 0 0 0
0 0 0 0 0 1 1 0 0 0 0 0 0 0 0 0 0 0 0 -0 -0 -0 -0 -0 -0 -0 -0 -0 0 0 0 0 0 0 0 1 1 2 2 2 1 1 0
0 0 0 0 0 1 0 0 1 0 0 0 0 0 0 0 0 0 0 0 -0 -0 -0 -0 0 -0 -0 -0 0 0 0 0 1 0 0 0 0 0 0 1 1 0 0
0 0 1 1 1 1 1 1 1 1 1 1 0 0 0 0 0 0 0 0 0 0 0 0 0 0 0 0 0 1 0 1 1 2 2 1 0 0 0 0 1 1 1
0 1 1 1 1 1 1 1 1 1 1 1 1 0 0 0 0 0 0 0 0 1 1 1 1 0 0 0 0 1 1 1 2 2 2 2 2 2 3 2 0 0 1
0 1 1 1 2 2 1 1 1 1 1 1 1 1 0 0 0 0 -0 -0 0 1 1 1 1 1 0 0 0 0 0 0 2 2 2 2 3 3 3 2 2 0 0
0 0 1 1 2 2 2 2 2 2 2 1 2 1 1 2 2 1 0 0 0 1 1 2 2 1 1 0 0 0 0 0 1 1 2 2 3 3 2 2 2 1 1
1 1 1 1 1 2 3 2 2 2 2 2 2 2 2 2 3 3 1 0 0 0 0 1 1 1 1 1 1 0 0 0 1 1 2 2 1 1 1 1 1 1 0
2 2 2 2 1 2 2 2 3 3 3 3 3 3 4 4 4 3 3 2 2 1 1 2 1 1 2 1 1 2 1 0 0 1 1 0 0 1 1 0 0 0 0
2 3 2 3 3 2 1 0 0 0 0 0 0 1 4 3 3 2 2 2 2 1 1 2 2 2 2 3 3 2 1 0 0 0 0 0 0 0 0 0 0 0 0
0 1 1 2 3 2 1 1 1 0 0 0 0 0 0 3 1 2 1 0 0 0 2 2 2 3 3 3 2 1 1 1 0 0 0 0 0 0 0 0 0 0 0
0 0 0 2 2 3 1 1 1 1 1 0 0 0 0 0 0 0 0 0 0 0 2 3 2 2 2 2 1 1 0 0 0 0 0 0 0 0 0 0 0 0 0
0 0 0 1 1 1 1 1 1 1 1 1 0 0 0 0 0 0 0 2 2 1 1 1 1 0 0 0 0 0 0 0 0 0 0 0 0 0 0 0 0 0 0
0 0 0 0 1 1 1 1 0 0 0 0 0 0 0 0 0 0 0 0 0 0 0 0 0 0 0 0 0 0 0 0 0 0 0 0 0 0 0 0 0 0 0
0 0 0 0 0 1 1 1 1 0 0 0 0 0 0 0 0 0 0 0 0 0 0 0 0 0 0 0 0 0 0 0 0 0 0 0 0 0 0 0 0 0 0
0 0 0 0 0 1 1 1 1 0 0 0 0 0 0 0 0 0 0 0 0 0 0 0 0 0 0 0 0 0 0 0 0 0 0 0 0 0 0 0 0 0 0
0 0 0 0 0 0 0 0 1 0 0 0 0 0 0 0 0 0 0 0 0 0 0 0 0 0 0 0 0 0 0 0 0 0 0 0 0 0 0 0 0 0 0
0 0 0 0 0 0 0 0 0 0 0 0 0 0 0 0 0 0 0 0 0 0 0 0 0 0 0 0 0 0 0 0 0 0 0 0 0 0 0 0 0 0 0
0 0 0 0 0 0 0 0 0 0 0 0 0 0 0 0 0 0 0 0 0 0 0 0 0 0 0 0 0 0 0 0 0 0 0 0 0 0 0 0 0 0 0
0 0 0 0 0 0 0 0 0 0 0 0 0 0 0 0 0 0 0 0 0 0 0 0 0 0 0 0 0 0 0 0 0 0 0 0 0 0 0 0 0 0 0
Wind_Speed_500mb
95 94 89 81 77 82 79 67 61 57 52 53 51 47 45 42 40 41 38 38 37 33 33 38 41 37 38 40 43 45 46 47 53 53 46 39 39 41 41 41 42 46 46
99 96 96 88 79 79 81 70 62 62 58 55 53 50 50 50 47 45 44 43 43 44 42 42 41 43 47 45 46 51 54 54 59 65 62 57 54 50 50 51 49 51 53
98 101 98 99 90 81 78 73 67 63 63 60 59 58 56 55 54 50 46 44 45 47 51 53 47 44 48 54 56 57 57 57 62 70 75 73 69 66 65 66 66 64 64
94 97 98 96 90 82 77 74 73 68 64 65 65 64 62 63 62 60 56 54 54 54 51 54 51 49 46 47 53 60 64 66 69 73 77 81 80 77 78 79 82 81 81
90 92 91 91 91 84 80 75 74 73 67 65 67 69 69 69 68 67 65 64 62 59 58 55 53 51 47 46 49 50 54 60 67 73 81 85 85 84 82 83 89 86 89
87 83 77 83 85 83 76 77 77 76 70 67 69 70 73 76 73 72 72 71 68 66 65 63 61 59 58 57 58 59 61 63 67 71 78 84 85 84 80 80 84 85 94
78 73 76 78 76 79 76 75 76 77 72 70 68 69 73 73 74 75 75 76 77 78 78 75 73 72 69 69 67 69 72 75 75 79 89 92 93 86 85 86 88 90 95
75 74 75 78 77 77 77 78 77 76 74 71 69 68 68 70 69 69 71 75 80 82 82 82 83 81 78 74 73 76 77 77 76 76 83 89 86 80 78 76 79 89 95
78 76 73 70 69 72 76 74 70 70 70 68 66 66 68 67 63 61 62 69 77 81 81 81 80 77 74 71 71 74 75 78 75 73 74 74 65 53 53 70 80 85 94
76 75 72 68 68 69 67 67 67 68 66 63 64 63 61 60 54 51 51 58 65 69 69 72 72 71 68 64 68 70 76 76 68 57 45 44 47 52 54 54 61 74 83
67 64 64 63 62 59 59 60 61 59 58 59 56 51 50 48 45 43 45 53 58 59 62 64 62 57 54 52 51 54 60 43 42 50 56 61 58 61 55 54 58 64 60
52 51 49 48 50 52 52 52 52 52 52 53 54 54 53 51 50 48 48 52 53 59 64 63 61 53 47 44 43 45 39 39 45 51 55 59 61 62 61 63 61 62 63
48 49 47 47 48 48 49 51 53 53 55 55 58 56 53 50 48 45 42 45 49 58 59 59 56 53 48 44 42 39 39 42 46 55 58 55 56 58 61 63 62 63 61
37 42 43 49 49 48 49 48 50 53 55 54 54 55 51 49 45 37 36 39 43 49 52 52 52 54 54 52 51 48 50 49 47 51 53 56 57 59 63 64 67 52 35
33 30 28 30 33 38 42 43 48 50 52 52 53 53 53 51 42 31 31 35 37 39 37 44 50 50 51 55 54 52 48 46 48 52 55 55 56 58 58 61 39 23 23
22 21 22 23 24 27 28 32 37 43 46 50 51 53 52 46 40 34 34 32 30 32 40 47 51 51 51 49 50 49 48 51 53 54 53 52 52 52 47 32 19 22 14
12 12 10 13 19 25 29 32 35 37 42 48 51 53 53 46 41 34 30 29 31 36 44 47 48 46 45 43 43 44 47 47 49 49 49 45 41 33 23 19 22 20 12
4 3 4 6 9 15 21 27 34 38 39 40 41 39 44 46 42 38 36 38 40 44 43 45 47 49 49 43 44 44 45 49 48 45 41 33 28 23 21 18 11 8 9
12 10 12 12 10 14 19 26 31 35 36 34 35 34 33 35 38 39 44 50 49 46 46 44 42 41 40 40 45 49 51 48 44 41 35 29 27 20 16 11 5 7 9
19 19 20 19 16 13 18 25 29 29 31 31 31 31 32 33 32 31 39 44 44 44 41 42 42 44 46 50 51 48 45 44 40 35 32 28 25 19 14 16 10 6 10
32 25 24 29 29 26 23 23 26 28 27 31 32 32 34 38 38 34 36 41 41 40 41 43 45 43 42 43 43 42 39 34 32 30 28 25 25 21 19 18 17 15 16
39 37 32 31 33 38 32 32 36 36 30 30 34 37 39 39 42 41 39 39 38 37 37 39 39 38 39 38 34 30 26 23 23 24 24 22 21 21 23 25 24 25 25
42 42 39 37 40 47 45 41 45 41 41 38 35 42 47 46 47 47 47 44 44 47 43 41 42 42 40 37 34 31 28 25 24 25 25 22 22 22 24 23 32 35 32
35 38 40 45 49 54 52 49 52 55 53 46 42 40 51 54 52 53 50 44 42 39 39 38 39 38 39 36 34 32 31 30 28 28 27 24 23 26 24 23 28 32 33
30 28 33 39 50 58 55 48 53 57 58 51 49 56 59 57 54 52 48 44 40 38 39 36 38 39 36 34 33 32 27 25 26 28 27 27 27 27 28 29 32 33 33
24 23 22 28 34 43 47 47 51 53 54 49 50 54 55 53 53 52 49 46 44 43 42 40 39 35 31 30 27 24 20 20 22 20 17 15 19 24 26 29 29 32 31
Wind_Direction_500mb
226 226 228 231 235 239 241 241 242 241 237 229 229 227 229 234 239 244 243 244 248 254 257 257 258 261 260 259 261 264 267 272 280 286 290 292 290 287 288 284 280 274 271
228 230 231 231 234 237 239 240 241 240 237 233 230 229 229 227 229 237 241 243 249 256 261 264 265 262 258 259 264 265 267 269 273 280 285 287 287 288 286 282 280 273 270
228 229 231 233 234 235 238 240 241 240 237 235 233 232 228 226 227 231 239 245 247 253 260 262 264 265 263 261 261 265 266 268 270 275 281 283 284 283 284 284 284 280 276
227 230 231 233 235 237 239 241 243 242 239 236 235 234 233 230 231 234 235 240 249 256 258 256 255 258 261 265 264 265 267 270 273 275 277 280 283 285 284 283 283 283 283
225 228 231 235 236 237 240 242 244 244 241 239 238 237 237 236 235 235 237 242 247 252 253 253 254 256 260 264 269 270 271 272 273 275 276 278 279 281 282 287 287 289 286
222 226 230 233 236 237 239 242 242 243 241 240 239 239 239 240 241 241 242 245 249 252 254 254 256 259 260 263 266 269 273 274 275 276 278 278 282 285 289 290 293 291 289
223 227 230 231 232 234 236 239 239 240 240 239 240 240 241 243 244 246 247 249 252 254 256 258 260 261 264 267 268 269 269 270 273 277 279 279 283 286 291 292 291 291 290
222 223 225 228 230 232 234 237 239 240 240 241 242 244 245 245 247 247 249 251 253 255 257 259 261 264 265 266 268 269 269 269 269 271 274 281 285 292 294 293 292 290 290
221 224 225 225 232 236 237 238 240 241 243 243 246 248 249 250 250 250 249 250 253 255 257 259 260 262 263 266 267 268 270 271 273 275 278 281 285 286 284 287 288 289 291
221 223 230 236 236 238 239 240 242 244 247 248 250 252 254 255 254 252 250 252 253 256 259 260 262 263 264 263 265 269 271 273 283 290 286 282 284 283 283 283 289 291 295
227 234 237 239 239 240 242 243 243 245 247 249 251 252 254 255 255 251 249 252 257 261 262 263 265 267 269 269 265 263 267 282 284 286 290 294 292 294 297 302 305 302 302
236 239 239 239 238 236 237 240 242 244 246 250 254 256 258 259 261 260 256 256 258 260 264 270 273 275 273 269 265 262 264 270 272 275 281 286 294 303 306 306 305 304 300
226 230 231 237 240 240 238 240 242 244 245 247 251 256 260 262 263 263 263 258 254 255 258 264 270 273 273 268 261 261 264 262 267 271 275 288 290 291 292 300 302 307 311
222 227 220 227 235 236 239 239 240 243 247 248 249 251 255 259 264 265 266 264 256 251 254 258 262 263 263 264 263 260 262 264 264 269 275 279 287 292 297 300 304 309 306
151 160 173 194 214 222 229 235 239 243 244 247 251 258 262 265 273 277 264 259 257 253 257 255 255 256 256 260 262 260 262 256 257 263 270 279 285 291 294 298 301 304 305
141 156 172 189 203 212 217 223 230 237 244 246 251 257 260 260 262 258 262 260 252 245 245 252 258 260 259 260 261 256 249 252 259 266 273 277 281 289 292 292 297 303 289
157 179 178 202 220 229 236 241 243 246 247 248 249 251 255 255 253 252 253 246 241 246 250 255 261 264 262 257 258 255 257 260 265 272 274 277 280 278 274 291 304 292 245
281 234 197 207 241 255 255 253 252 253 255 254 252 250 249 248 247 246 238 237 244 248 251 257 259 258 255 255 254 257 261 266 268 268 268 264 258 248 267 296 287 252 229
292 271 254 257 268 268 268 269 267 262 257 253 250 247 245 243 244 244 241 245 248 250 255 251 249 252 254 255 260 262 264 262 259 257 252 247 239 252 257 246 225 233 217
297 278 268 263 258 265 267 277 273 269 261 253 253 249 245 241 241 255 249 245 250 246 242 246 246 250 254 259 260 257 253 254 251 246 244 246 233 231 250 227 225 221 198
281 267 253 247 251 259 257 266 281 269 266 254 248 250 249 251 242 247 255 251 245 246 249 251 252 251 250 248 247 250 249 245 242 238 230 228 224 229 228 218 218 205 196
266 261 253 247 259 261 254 263 279 275 266 256 249 248 244 246 240 244 243 250 251 255 256 248 245 242 240 242 241 235 226 227 231 224 221 222 221 228 221 213 219 222 207
259 251 247 244 249 254 252 261 271 266 267 262 261 248 243 239 237 231 225 229 236 245 243 239 235 232 230 225 219 214 216 226 231 226 227 228 230 221 212 211 219 228 214
265 255 251 247 248 247 248 253 261 262 264 255 252 245 232 229 227 222 221 224 225 226 232 230 228 225 225 222 223 226 230 233 229 222 225 230 229 221 221 221 226 222 222
292 275 259 264 262 254 250 250 254 255 256 245 231 219 211 210 212 214 219 219 222 224 223 226 226 221 223 228 233 237 240 238 230 229 233 230 229 230 245 248 236 229 225
282 276 263 253 249 243 242 241 241 246 236 227 229 208 202 199 201 200 196 204 216 213 216 214 224 230 226 227 224 221 224 219 210 210 210 207 220 233 246 245 228 223 218
Wind_Speed_850mb
95 94 89 81 77 82 79 67 61 57 52 53 51 47 45 42 40 41 38 38 37 33 33 38 41 37 38 40 43 45 46 47 53 53 46 39 39 41 41 41 42 46 46
99 96 96 88 79 79 81 70 62 62 58 55 53 50 50 50 47 45 44 43 43 44 42 42 41 43 47 45 46 51 54 54 59 65 62 57 54 50 50 51 49 51 53
98 101 98 99 90 81 78 73 67 63 63 60 59 58 56 55 54 50 46 44 45 47 51 53 47 44 48 54 56 57 57 57 62 70 75 73 69 66 65 66 66 64 64
94 97 98 96 90 82 77 74 73 68 64 65 65 64 62 63 62 60 56 54 54 54 51 54 51 49 46 47 53 60 64 66 69 73 77 81 80 77 78 79 82 81 81
90 92 91 91 91 84 80 75 74 73 67 65 67 69 69 69 68 67 65 64 62 59 58 55 53 51 47 46 49 50 54 60 67 73 81 85 85 84 82 83 89 86 89
87 83 77 83 85 83 76 77 77 76 70 67 69 70 73 76 73 72 72 71 68 66 65 63 61 59 58 57 58 59 61 63 67 71 78 84 85 84 80 80 84 85 94
78 73 76 78 76 79 76 75 76 77 72 70 68 69 73 73 74 75 75 76 77 78 78 75 73 72 69 69 67 69 72 75 75 79 89 92 93 86 85 86 88 90 95
75 74 75 78 77 77 77 78 77 76 74 71 69 68 68 70 69 69 71 75 80 82 82 82 83 81 78 74 73 76 77 77 76 76 83 89 86 80 78 76 79 89 95
78 76 73 70 69 72 76 74 70 70 70 68 66 66 68 67 63 61 62 69 77 81 81 81 80 77 74 71 71 74 75 78 75 73 74 74 65 53 53 70 80 85 94
76 75 72 68 68 69 67 67 67 68 66 63 64 63 61 60 54 51 51 58 65 69 69 72 72 71 68 64 68 70 76 76 68 57 45 44 47 52 54 54 61 74 83
67 64 64 63 62 59 59 60 61 59 58 59 56 51 50 48 45 43 45 53 58 59 62 64 62 57 54 52 51 54 60 43 42 50 56 61 58 61 55 54 58 64 60
52 51 49 48 50 52 52 52 52 52 52 53 54 54 53 51 50 48 48 52 53 59 64 63 61 53 47 44 43 45 39 39 45 51 55 59 61 62 61 63 61 62 63
48 49 47 47 48 48 49 51 53 53 55 55 58 56 53 50 48 45 42 45 49 58 59 59 56 53 48 44 42 39 39 42 46 55 58 55 56 58 61 63 62 63 61
37 42 43 49 49 48 49 48 50 53 55 54 54 55 51 49 45 37 36 39 43 49 52 52 52 54 54 52 51 48 50 49 47 51 53 56 57 59 63 64 67 52 35
33 30 28 30 33 38 42 43 48 50 52 52 53 53 53 51 42 31 31 35 37 39 37 44 50 50 51 55 54 52 48 46 48 52 55 55 56 58 58 61 39 23 23
22 21 22 23 24 27 28 32 37 43 46 50 51 53 52 46 40 34 34 32 30 32 40 47 51 51 51 49 50 49 48 51 53 54 53 52 52 52 47 32 19 22 14
12 12 10 13 19 25 29 32 35 37 42 48 51 53 53 46 41 34 30 29 31 36 44 47 48 46 45 43 43 44 47 47 49 49 49 45 41 33 23 19 22 20 12
4 3 4 6 9 15 21 27 34 38 39 40 41 39 44 46 42 38 36 38 40 44 43 45 47 49 49 43 44 44 45 49 48 45 41 33 28 23 21 18 11 8 9
12 10 12 12 10 14 19 26 31 35 36 34 35 34 33 35 38 39 44 50 49 46 46 44 42 41 40 40 45 49 51 48 44 41 35 29 27 20 16 11 5 7 9
19 19 20 19 16 13 18 25 29 29 31 31 31 31 32 33 32 31 39 44 44 44 41 42 42 44 46 50 51 48 45 44 40 35 32 28 25 19 14 16 10 6 10
32 25 24 29 29 26 23 23 26 28 27 31 32 32 34 38 38 34 36 41 41 40 41 43 45 43 42 43 43 42 39 34 32 30 28 25 25 21 19 18 17 15 16
39 37 32 31 33 38 32 32 36 36 30 30 34 37 39 39 42 41 39 39 38 37 37 39 39 38 39 38 34 30 26 23 23 24 24 22 21 21 23 25 24 25 25
42 42 39 37 40 47 45 41 45 41 41 38 35 42 47 46 47 47 47 44 44 47 43 41 42 42 40 37 34 31 28 25 24 25 25 22 22 22 24 23 32 35 32
35 38 40 45 49 54 52 49 52 55 53 46 42 40 51 54 52 53 50 44 42 39 39 38 39 38 39 36 34 32 31 30 28 28 27 24 23 26 24 23 28 32 33
30 28 33 39 50 58 55 48 53 57 58 51 49 56 59 57 54 52 48 44 40 38 39 36 38 39 36 34 33 32 27 25 26 28 27 27 27 27 28 29 32 33 33
24 23 22 28 34 43 47 47 51 53 54 49 50 54 55 53 53 52 49 46 44 43 42 40 39 35 31 30 27 24 20 20 22 20 17 15 19 24 26 29 29 32 31
Wind_Direction_850mb
226 226 228 231 235 239 241 241 242 241 237 229 229 227 229 234 239 244 243 244 248 254 257 257 258 261 260 259 261 264 267 272 280 286 290 292 290 287 288 284 280 274 271
228 230 231 231 234 237 239 240 241 240 237 233 230 229 229 227 229 237 241 243 249 256 261 264 265 262 258 259 264 265 267 269 273 280 285 287 287 288 286 282 280 273 270
228 229 231 233 234 235 238 240 241 240 237 235 233 232 228 226 227 231 239 245 247 253 260 262 264 265 263 261 261 265 266 268 270 275 281 283 284 283 284 284 284 280 276
227 230 231 233 235 237 239 241 243 242 239 236 235 234 233 230 231 234 235 240 249 256 258 256 255 258 261 265 264 265 267 270 273 275 277 280 283 285 284 283 283 283 283
225 228 231 235 236 237 240 242 244 244 241 239 238 237 237 236 235 235 237 242 247 252 253 253 254 256 260 264 269 270 271 272 273 275 276 278 279 281 282 287 287 289 286
222 226 230 233 236 237 239 242 242 243 241 240 239 239 239 240 241 241 242 245 249 252 254 254 256 259 260 263 266 269 273 274 275 276 278 278 282 285 289 290 293 291 289
223 227 230 231 232 234 236 239 239 240 240 239 240 240 241 243 244 246 247 249 252 254 256 258 260 261 264 267 268 269 269 270 273 277 279 279 283 286 291 292 291 291 290
222 223 225 228 230 232 234 237 239 240 240 241 242 244 245 245 247 247 249 251 253 255 257 259 261 264 265 266 268 269 269 269 269 271 274 281 285 292 294 293 292 290 290
221 224 225 225 232 236 237 238 240 241 243 243 246 248 249 250 250 250 249 250 253 255 257 259 260 262 263 266 267 268 270 271 273 275 278 281 285 286 284 287 288 289 291
221 223 230 236 236 238 239 240 242 244 247 248 250 252 254 255 254 252 250 252 253 256 259 260 262 263 264 263 265 269 271 273 283 290 286 282 284 283 283 283 289 291 295
227 234 237 239 239 240 242 243 243 245 247 249 251 252 254 255 255 251 249 252 257 261 262 263 265 267 269 269 265 263 267 282 284 286 290 294 292 294 297 302 305 302 302
236 239 239 239 238 236 237 240 242 244 246 250 254 256 258 259 261 260 256 256 258 260 264 270 273 275 273 269 265 262 264 270 272 275 281 286 294 303 306 306 305 304 300
226 230 231 237 240 240 238 240 242 244 245 247 251 256 260 262 263 263 263 258 254 255 258 264 270 273 273 268 261 261 264 262 267 271 275 288 290 291 292 300 302 307 311
222 227 220 227 235 236 239 239 240 243 247 248 249 251 255 259 264 265 266 264 256 251 254 258 262 263 263 264 263 260 262 264 264 269 275 279 287 292 297 300 304 309 306
151 160 173 194 214 222 229 235 239 243 244 247 251 258 262 265 273 277 264 259 257 253 257 255 255 256 256 260 262 260 262 256 257 263 270 279 285 291 294 298 301 304 305
141 156 172 189 203 212 217 223 230 237 244 246 251 257 260 260 262 258 262 260 252 245 245 252 258 260 259 260 261 256 249 252 259 266 273 277 281 289 292 292 297 303 289
157 179 178 202 220 229 236 241 243 246 247 248 249 251 255 255 253 252 253 246 241 246 250 255 261 264 262 257 258 255 257 260 265 272 274 277 280 278 274 291 304 292 245
281 234 197 207 241 255 255 253 252 253 255 254 252 250 249 248 247 246 238 237 244 248 251 257 259 258 255 255 254 257 261 266 268 268 268 264 258 248 267 296 287 252 229
292 271 254 257 268 268 268 269 267 262 257 253 250 247 245 243 244 244 241 245 248 250 255 251 249 252 254 255 260 262 264 262 259 257 252 247 239 252 257 246 225 233 217
297 278 268 263 258 265 267 277 273 269 261 253 253 249 245 241 241 255 249 245 250 246 242 246 246 250 254 259 260 257 253 254 251 246 244 246 233 231 250 227 225 221 198
281 267 253 247 251 259 257 266 281 269 266 254 248 250 249 251 242 247 255 251 245 246 249 251 252 251 250 248 247 250 249 245 242 238 230 228 224 229 228 218 218 205 196
266 261 253 247 259 261 254 263 279 275 266 256 249 248 244 246 240 244 243 250 251 255 256 248 245 242 240 242 241 235 226 227 231 224 221 222 221 228 221 213 219 222 207
259 251 247 244 249 254 252 261 271 266 267 262 261 248 243 239 237 231 225 229 236 245 243 239 235 232 230 225 219 214 216 226 231 226 227 228 230 221 212 211 219 228 214
265 255 251 247 248 247 248 253 261 262 264 255 252 245 232 229 227 222 221 224 225 226 232 230 228 225 225 222 223 226 230 233 229 222 225 230 229 221 221 221 226 222 222
292 275 259 264 262 254 250 250 254 255 256 245 231 219 211 210 212 214 219 219 222 224 223 226 226 221 223 228 233 237 240 238 230 229 233 230 229 230 245 248 236 229 225
282 276 263 253 249 243 242 241 241 246 236 227 229 208 202 199 201 200 196 204 216 213 216 214 224 230 226 227 224 221 224 219 210 210 210 207 220 233 246 245 228 223 218